Temperature
7 7 7 7 7 7 7 7 7 7 7 7 7 7 6 7 6 6 6 6 6 6 6 6 5 5 6 5 5 5 5 4 4 4 5 5 4 5 5 4 4 4 4
7 7 7 7 7 7 7 6 6 6 6 6 6 6 6 6 6 6 6 6 5 5 5 5 5 5 5 5 5 4 4 4 4 4 4 4 4 4 4 4 4 3 3
7 7 7 7 7 7 6 6 6 6 6 6 6 6 6 6 5 5 5 5 5 5 5 5 5 4 4 4 4 4 4 4 3 3 3 3 3 3 3 3 3 3 3
6 6 6 6 6 6 6 6 6 6 5 5 5 5 5 5 5 5 5 5 4 4 4 4 4 4 4 4 3 3 3 3 3 3 3 3 3 3 2 2 2 2 2
6 6 6 6 6 5 5 5 5 5 5 5 5 5 5 5 5 4 4 4 4 4 4 4 3 3 3 3 3 3 2 2 2 2 2 2 2 2 2 2 1 1 1
5 5 5 5 5 5 5 5 5 5 5 4 4 4 4 4 4 4 4 4 3 3 3 3 3 3 2 2 2 2 2 2 2 2 2 1 2 1 1 1 1 0 0
5 5 5 5 5 5 5 4 4 4 4 4 4 4 4 4 3 3 3 3 3 3 3 2 2 2 2 2 2 2 2 1 1 1 1 1 1 1 0 0 -0 -0 -0
4 4 4 4 4 4 4 4 4 4 4 3 3 3 3 3 3 3 3 2 2 2 2 2 2 2 2 1 1 1 1 1 1 1 0 0 0 0 -0 -0 -1 -1 -1
4 4 4 4 3 3 3 3 3 3 3 3 3 3 3 3 2 2 2 2 2 2 2 2 1 1 1 1 1 1 1 1 0 0 -0 -0 -0 -0 -1 -1 -1 -1 -1
3 3 3 3 3 3 3 3 2 2 2 2 2 2 2 2 2 1 1 1 1 1 1 1 1 1 1 0 0 0 0 0 -0 -0 -0 -0 -1 -1 -1 -1 -1 -2 -2
2 2 2 2 2 2 2 2 2 2 2 2 2 1 1 1 1 1 1 1 1 0 0 0 0 0 -0 -0 -0 -1 -0 -1 -1 -1 -1 -1 -1 -1 -1 -2 -2 -2 -2
2 2 2 2 2 2 2 2 1 1 1 1 1 1 1 1 0 0 0 -0 -0 -0 -0 -0 -0 -1 -1 -1 -1 -1 -1 -1 -1 -1 -2 -2 -2 -2 -2 -2 -2 -2 -3
1 2 1 1 1 1 1 1 1 1 0 0 0 -0 -0 -0 -0 -0 -0 -1 -1 -1 -1 -1 -1 -1 -1 -1 -1 -1 -2 -2 -2 -2 -2 -2 -2 -2 -2 -3 -3 -3 -3
1 1 1 1 1 0 0 0 0 -0 -0 -0 -1 -1 -1 -1 -1 -1 -1 -1 -1 -1 -1 -1 -1 -1 -2 -2 -2 -2 -2 -2 -3 -3 -3 -3 -3 -3 -3 -3 -3 -3 -3
0 0 0 0 -0 -0 -0 -0 -1 -1 -1 -1 -1 -1 -1 -1 -1 -1 -1 -1 -1 -1 -2 -2 -2 -2 -2 -2 -2 -2 -3 -3 -3 -3 -3 -3 -3 -3 -3 -4 -4 -4 -4
-0 -0 -1 -1 -1 -1 -1 -1 -1 -2 -2 -2 -2 -2 -2 -2 -2 -2 -2 -2 -2 -2 -2 -2 -2 -2 -2 -3 -3 -3 -3 -3 -3 -4 -4 -4 -4 -4 -4 -4 -4 -4 -4
-1 -1 -1 -2 -2 -2 -2 -2 -2 -2 -2 -2 -2 -2 -2 -2 -2 -2 -2 -2 -2 -2 -3 -3 -3 -3 -3 -3 -3 -4 -4 -4 -4 -4 -4 -4 -4 -4 -4 -4 -5 -5 -5
-2 -2 -2 -2 -2 -2 -2 -2 -3 -3 -3 -3 -3 -3 -3 -3 -3 -3 -3 -3 -3 -3 -3 -3 -3 -3 -4 -4 -4 -4 -4 -4 -4 -4 -4 -4 -4 -5 -5 -5 -5 -5 -5
-3 -3 -3 -3 -3 -3 -3 -3 -3 -3 -3 -3 -3 -3 -3 -4 -4 -4 -3 -3 -3 -3 -3 -4 -4 -4 -4 -4 -4 -4 -5 -5 -5 -5 -5 -5 -5 -5 -5 -5 -5 -6 -6
-3 -3 -3 -3 -3 -3 -3 -4 -4 -4 -4 -4 -4 -4 -4 -4 -4 -4 -4 -4 -4 -4 -4 -4 -4 -5 -5 -5 -5 -5 -5 -5 -5 -5 -5 -5 -5 -6 -6 -6 -6 -6 -6
-4 -4 -4 -4 -4 -4 -4 -4 -4 -4 -4 -4 -4 -4 -5 -5 -5 -4 -4 -4 -4 -5 -5 -5 -5 -5 -5 -5 -5 -5 -5 -5 -5 -6 -6 -6 -6 -6 -6 -6 -6 -6 -6
-4 -4 -4 -4 -4 -4 -4 -5 -5 -5 -5 -5 -5 -5 -5 -5 -5 -5 -5 -5 -5 -5 -5 -5 -5 -5 -5 -5 -6 -6 -6 -6 -6 -6 -6 -6 -6 -6 -6 -6 -6 -7 -7
-5 -5 -5 -5 -5 -5 -5 -5 -5 -5 -5 -5 -5 -5 -5 -5 -5 -5 -5 -5 -5 -5 -6 -6 -6 -6 -6 -6 -6 -6 -6 -6 -6 -6 -6 -6 -6 -7 -7 -7 -7 -7 -7
-5 -5 -5 -5 -5 -5 -5 -5 -5 -5 -6 -6 -6 -6 -6 -6 -6 -6 -6 -6 -6 -6 -6 -6 -6 -6 -6 -6 -6 -6 -6 -6 -6 -7 -7 -7 -7 -7 -7 -7 -7 -7 -7
-6 -6 -6 -6 -6 -6 -6 -6 -6 -6 -6 -6 -6 -6 -6 -6 -6 -6 -6 -6 -6 -6 -6 -6 -6 -6 -6 -6 -6 -6 -6 -7 -7 -7 -7 -7 -7 -7 -7 -7 -7 -7 -7
-6 -6 -6 -6 -6 -6 -6 -6 -6 -6 -6 -6 -6 -6 -6 -6 -6 -6 -6 -6 -6 -6 -6 -6 -6 -6 -6 -6 -6 -6 -7 -7 -7 -7 -7 -7 -7 -7 -7 -7 -7 -8 -8
Wind_Speed
8 7 7 7 6 6 6 6 5 5 5 5 5 4 4 4 3 3 3 3 3 3 3 4 3 2 2 2 2 2 2 2 4 4 2 2 2 3 5 7 8 8 9
7 7 7 6 6 6 5 5 5 5 5 5 5 5 5 4 4 4 4 4 3 3 3 3 4 3 3 2 2 3 3 3 3 5 4 3 3 4 4 5 7 9 9
6 6 6 6 6 6 5 5 5 5 4 4 5 5 5 4 4 4 4 4 4 4 4 4 4 3 3 3 3 3 3 3 3 4 5 3 3 3 4 5 5 5 8
6 6 6 6 6 5 5 5 5 5 5 4 4 4 4 4 4 4 4 4 4 4 4 4 4 5 5 4 4 4 3 3 3 3 4 4 4 4 3 4 5 4 5
6 6 5 5 5 4 4 4 4 4 4 4 4 4 4 3 4 4 4 4 4 3 3 4 4 5 6 5 5 4 4 4 3 4 5 4 4 4 4 4 5 5 5
6 5 5 5 5 4 4 4 4 4 4 4 4 4 4 4 5 6 5 4 4 4 5 4 4 5 6 8 8 8 7 6 5 5 5 6 7 5 4 4 5 5 6
5 5 5 5 4 4 4 4 4 4 4 3 3 4 4 5 6 7 7 5 4 5 5 5 5 5 6 5 7 8 9 11 11 8 7 8 7 6 5 6 6 7 8
5 5 5 5 4 4 4 4 4 3 3 3 4 4 4 5 7 7 6 4 4 5 5 5 6 5 6 6 5 6 6 7 8 7 7 7 7 6 6 6 7 7 7
4 4 4 4 4 4 4 4 3 3 3 3 3 4 4 5 7 7 6 3 4 5 5 5 6 6 8 9 6 6 6 7 9 11 12 11 12 12 9 5 5 5 7
4 3 3 3 4 4 4 3 2 3 3 3 3 4 4 5 7 8 7 3 4 4 4 5 8 9 10 9 6 6 7 7 5 6 7 8 8 10 11 7 5 6 6
3 3 3 3 3 3 3 3 2 2 2 2 3 3 4 5 7 8 8 4 4 4 4 4 5 9 10 10 8 6 9 8 5 5 5 5 5 5 5 6 6 6 7
3 3 2 2 2 2 3 2 2 2 2 2 3 3 3 4 5 7 9 9 7 5 5 4 5 8 9 10 8 9 11 9 4 4 5 5 5 5 5 6 7 8 8
3 2 1 1 1 2 2 2 2 2 2 3 3 4 4 3 4 8 9 10 9 6 5 7 8 9 9 8 9 10 8 5 4 5 6 6 5 5 5 4 5 6 7
2 1 1 1 1 1 1 2 2 3 3 3 4 4 4 3 4 4 4 5 6 5 5 6 9 9 7 7 7 6 5 5 5 6 5 5 4 4 4 4 4 4 4
1 1 1 0 1 1 1 1 2 3 4 4 4 4 4 5 6 7 6 4 4 4 4 3 3 3 4 4 4 5 4 4 5 4 5 5 4 4 4 3 4 4 4
1 1 0 0 1 1 1 2 3 3 6 7 7 7 6 7 8 9 9 9 9 8 6 4 5 5 5 5 5 5 4 5 5 5 5 5 5 5 5 4 4 4 5
1 1 1 1 1 1 1 2 3 4 5 6 7 8 8 8 9 9 9 9 9 9 6 5 6 6 6 6 5 5 5 5 5 5 5 5 5 5 5 5 5 5 5
1 2 2 2 2 2 2 2 2 3 4 4 5 7 7 8 8 8 8 6 5 5 4 5 6 6 5 5 5 5 5 4 4 5 5 5 5 5 5 6 5 6 5
2 2 2 2 2 2 2 2 3 3 4 4 4 4 6 6 7 7 7 4 4 5 5 5 5 5 5 5 5 5 5 5 5 5 5 5 5 5 5 5 5 7 6
2 4 3 2 2 2 2 3 3 3 4 4 4 4 3 3 3 4 4 4 4 5 5 5 5 5 5 5 5 4 5 5 5 5 5 5 5 5 6 6 6 5 5
3 3 4 3 3 3 3 3 3 4 4 4 5 5 7 4 5 5 5 4 5 5 5 5 4 4 4 4 4 5 5 5 5 5 5 5 5 5 5 5 5 5 5
3 3 3 3 3 3 4 3 3 4 5 5 5 5 8 5 4 5 5 5 5 4 4 4 4 4 4 5 5 5 5 5 5 5 5 4 4 5 5 5 5 4 5
3 3 4 3 3 5 5 4 4 4 5 5 5 5 5 5 5 5 5 5 4 4 4 5 5 5 5 5 6 6 6 6 5 5 5 5 5 5 5 5 5 5 5
3 4 4 4 4 4 4 4 4 5 5 5 5 5 5 5 5 5 5 4 4 4 5 5 5 6 7 6 7 7 8 8 7 6 6 6 6 5 5 5 5 5 5
3 4 4 4 4 4 4 5 5 5 5 5 6 5 5 5 5 5 4 4 5 5 5 6 5 6 7 8 7 8 9 10 10 8 7 6 6 6 5 5 5 4 5
4 4 4 4 4 4 4 5 5 5 5 6 6 6 6 6 5 5 4 4 4 4 5 5 6 7 8 8 8 9 10 10 10 10 7 5 5 5 5 5 5 5 5
Wind_Direction
153 154 154 156 155 152 154 154 154 155 159 164 169 171 170 171 167 165 176 184 185 192 201 199 202 202 195 209 227 236 246 237 256 278 274 269 274 288 295 288 284 280 276
152 151 151 152 148 147 154 157 156 160 168 171 172 176 178 180 181 182 190 193 191 196 209 207 206 205 205 214 221 232 241 241 245 269 281 276 269 273 282 288 289 283 276
144 146 146 148 147 150 152 153 155 160 168 173 173 181 186 186 188 193 193 196 200 203 206 217 216 204 222 227 226 233 243 252 246 257 273 279 281 277 280 282 282 283 281
139 145 151 154 155 157 155 157 166 169 172 179 183 188 193 194 194 194 191 199 206 209 210 218 222 214 219 222 234 238 242 247 248 252 266 277 279 274 268 276 287 281 281
141 146 152 148 145 146 152 161 169 172 175 181 183 187 190 195 198 193 196 205 208 215 221 225 226 225 229 230 234 233 236 244 249 253 263 272 273 271 268 268 279 288 281
146 151 147 145 145 152 159 164 170 174 175 177 190 192 198 213 207 210 210 208 210 216 227 233 233 235 241 247 248 247 241 241 242 250 260 261 266 266 269 270 277 285 286
148 147 147 148 154 163 165 168 180 183 178 185 196 198 206 213 219 223 222 217 216 224 228 231 243 239 246 241 253 259 261 260 254 248 252 256 261 260 262 272 271 271 272
147 149 151 153 161 167 167 177 188 184 184 191 201 204 211 223 226 232 232 228 227 231 231 230 233 237 238 239 242 250 255 259 257 253 248 254 258 256 248 256 266 278 279
142 146 152 157 163 168 174 184 188 183 191 198 203 206 216 232 234 238 241 229 234 242 241 236 235 236 244 246 246 249 260 265 266 261 260 263 267 270 270 271 272 279 283
141 139 147 158 168 178 182 186 186 185 192 201 214 218 222 232 240 244 244 229 237 248 252 246 244 244 247 248 243 240 252 262 261 266 266 270 268 268 267 254 248 261 275
128 134 150 164 175 182 178 176 175 182 193 213 228 238 234 236 243 246 247 238 230 241 249 250 248 250 251 252 253 247 254 263 260 257 263 266 265 260 260 255 250 248 258
123 136 152 168 175 166 166 170 176 180 199 224 235 251 250 245 246 247 247 250 249 244 248 248 247 254 257 259 260 258 265 273 263 257 259 260 258 256 258 257 257 255 254
116 127 145 155 165 169 172 178 189 198 208 230 234 244 254 251 245 250 251 253 254 253 251 253 259 259 261 263 259 261 265 258 249 253 255 256 250 250 257 266 267 267 270
110 119 135 143 164 175 194 197 203 215 221 233 238 248 260 260 251 243 242 249 254 259 259 259 263 263 260 255 258 258 248 243 243 246 252 257 256 254 256 257 264 270 277
95 100 80 101 204 222 245 243 240 241 234 242 242 242 250 256 254 251 252 246 241 246 260 260 253 254 248 249 251 249 243 244 251 247 251 259 260 258 258 251 254 261 264
64 46 21 321 273 255 266 310 308 275 274 269 265 263 266 265 265 264 266 265 266 261 267 249 246 243 243 245 247 249 243 241 242 242 246 248 254 257 260 258 253 254 261
12 309 292 286 278 268 262 262 295 312 301 290 279 272 270 269 266 265 267 268 264 263 260 244 243 241 242 242 242 243 247 243 239 239 244 247 247 251 254 256 252 250 255
344 310 294 275 270 269 268 267 268 279 297 304 297 284 279 275 272 271 269 275 264 259 245 242 244 242 240 241 241 245 247 244 240 241 243 242 240 244 249 252 251 249 255
326 306 296 287 281 276 274 272 272 270 275 285 295 296 289 286 282 275 276 261 253 257 253 251 247 245 243 240 240 242 243 243 241 240 242 242 240 242 250 251 251 254 257
321 310 308 299 292 288 284 280 279 277 277 279 280 283 293 294 282 279 274 260 254 255 254 253 252 248 245 242 240 240 243 244 242 242 242 241 239 241 247 250 250 252 255
313 311 311 305 294 288 284 281 281 279 278 280 280 279 283 281 270 270 270 262 256 255 256 255 254 251 249 247 244 244 246 248 244 242 241 240 239 242 246 249 248 249 253
305 300 295 289 291 293 291 285 285 284 282 282 287 286 283 283 272 270 269 267 263 258 255 255 255 248 242 242 242 245 249 252 249 244 243 243 242 243 247 247 247 250 249
300 297 295 292 292 296 298 291 285 283 283 285 287 290 288 280 275 273 272 271 270 265 258 254 255 254 248 242 239 238 245 249 244 236 238 242 242 242 243 244 243 247 249
291 289 289 290 290 287 287 289 289 287 287 290 292 292 290 286 283 280 278 276 272 268 262 258 255 253 253 253 248 245 246 247 242 237 236 239 243 245 242 246 244 243 247
294 291 289 286 285 284 285 288 291 293 295 296 295 294 294 292 288 286 283 278 274 273 270 267 260 256 254 255 254 252 254 254 250 242 234 234 237 238 240 243 242 244 244
293 291 289 287 285 286 288 290 292 294 294 294 292 290 292 292 291 289 289 286 286 283 278 272 264 262 259 256 255 257 259 258 254 250 240 231 230 233 233 237 236 237 239
Height
1467 1470 1474 1476 1479 1482 1484 1486 1488 1491 1492 1494 1496 1498 1499 1501 1502 1503 1504 1506 1507 1508 1509 1509 1509 1510 1511 1511 1512 1513 1513 1513 1511 1509 1510 1509 1509 1509 1508 1507 1506 1506 1505
1465 1468 1471 1474 1476 1479 1481 1483 1485 1488 1490 1491 1493 1494 1496 1497 1498 1500 1500 1502 1503 1503 1505 1505 1505 1506 1506 1507 1508 1508 1508 1508 1507 1505 1504 1504 1504 1504 1503 1502 1501 1500 1500
1463 1466 1468 1471 1473 1476 1478 1480 1483 1484 1486 1488 1489 1491 1492 1494 1495 1496 1497 1498 1498 1499 1500 1501 1501 1502 1502 1502 1503 1503 1503 1503 1503 1502 1500 1499 1499 1499 1498 1497 1496 1494 1494
1460 1463 1465 1468 1470 1473 1475 1477 1479 1481 1483 1484 1486 1487 1489 1490 1491 1492 1493 1494 1494 1495 1496 1497 1497 1497 1497 1498 1498 1498 1498 1498 1498 1497 1495 1494 1494 1494 1493 1491 1490 1489 1488
1457 1460 1462 1465 1467 1470 1472 1474 1476 1477 1479 1481 1482 1483 1485 1486 1487 1488 1489 1490 1490 1490 1491 1492 1492 1493 1493 1493 1493 1493 1493 1493 1493 1492 1490 1489 1489 1488 1488 1486 1485 1483 1481
1455 1458 1460 1462 1465 1466 1468 1470 1472 1473 1475 1476 1478 1479 1480 1482 1483 1484 1485 1485 1485 1486 1486 1486 1487 1487 1488 1488 1488 1488 1489 1488 1487 1487 1485 1484 1483 1483 1483 1482 1480 1477 1475
1453 1455 1458 1460 1461 1463 1465 1466 1468 1469 1471 1472 1474 1475 1476 1478 1479 1480 1480 1481 1481 1481 1481 1481 1481 1482 1482 1482 1482 1482 1482 1482 1483 1482 1480 1479 1478 1478 1478 1476 1474 1472 1470
1451 1453 1455 1456 1458 1460 1461 1463 1464 1465 1467 1468 1469 1470 1472 1473 1474 1475 1476 1476 1476 1476 1476 1476 1476 1476 1477 1477 1476 1476 1476 1476 1476 1476 1475 1474 1473 1473 1472 1471 1469 1466 1464
1448 1450 1452 1453 1455 1456 1457 1459 1460 1462 1463 1464 1465 1466 1467 1468 1469 1470 1471 1470 1470 1470 1471 1471 1471 1471 1471 1472 1471 1471 1470 1470 1470 1470 1469 1468 1467 1467 1466 1465 1463 1461 1458
1445 1447 1449 1451 1452 1453 1454 1455 1457 1458 1459 1460 1461 1462 1463 1463 1464 1465 1465 1465 1464 1464 1465 1465 1465 1465 1466 1466 1466 1465 1464 1463 1463 1463 1462 1461 1461 1460 1460 1459 1457 1455 1453
1443 1445 1447 1448 1449 1450 1451 1452 1453 1454 1454 1455 1456 1457 1458 1458 1459 1459 1460 1460 1459 1459 1459 1459 1459 1460 1460 1460 1460 1459 1458 1458 1457 1456 1455 1454 1454 1453 1453 1452 1451 1450 1448
1441 1442 1444 1445 1446 1447 1448 1448 1449 1450 1450 1451 1451 1452 1452 1453 1453 1453 1454 1454 1454 1454 1454 1454 1454 1454 1454 1454 1454 1453 1453 1452 1451 1450 1449 1448 1447 1447 1446 1446 1445 1444 1442
1439 1440 1441 1442 1443 1444 1444 1445 1445 1446 1446 1446 1446 1447 1447 1447 1448 1448 1448 1448 1448 1449 1448 1448 1449 1448 1448 1448 1447 1447 1446 1445 1444 1444 1443 1442 1442 1441 1440 1439 1438 1437 1436
1437 1438 1438 1439 1440 1441 1441 1441 1442 1442 1442 1442 1442 1442 1442 1442 1442 1442 1442 1442 1443 1443 1443 1443 1443 1442 1442 1441 1441 1440 1440 1439 1439 1438 1437 1436 1435 1435 1434 1433 1432 1430 1429
1435 1435 1436 1437 1437 1437 1438 1438 1438 1438 1439 1439 1438 1438 1437 1436 1437 1437 1437 1437 1437 1437 1437 1437 1436 1436 1435 1435 1434 1434 1433 1433 1433 1432 1431 1430 1429 1428 1428 1427 1426 1425 1423
1432 1433 1433 1434 1434 1434 1434 1434 1434 1435 1435 1434 1434 1434 1433 1433 1432 1432 1432 1432 1432 1432 1432 1430 1430 1429 1429 1428 1428 1427 1427 1426 1426 1425 1425 1424 1423 1422 1422 1421 1420 1419 1418
1430 1430 1431 1431 1431 1431 1431 1430 1430 1430 1430 1429 1429 1429 1429 1428 1428 1427 1427 1427 1426 1426 1425 1424 1424 1423 1423 1422 1422 1421 1421 1420 1420 1419 1418 1418 1417 1417 1416 1415 1414 1413 1412
1428 1428 1428 1428 1428 1428 1427 1427 1426 1425 1424 1423 1424 1424 1423 1423 1422 1422 1421 1421 1420 1420 1419 1418 1418 1417 1417 1417 1416 1416 1415 1414 1414 1413 1412 1412 1411 1411 1410 1409 1408 1408 1407
1426 1425 1425 1425 1425 1424 1424 1423 1422 1422 1421 1420 1419 1419 1419 1418 1417 1417 1416 1415 1414 1414 1413 1413 1412 1412 1412 1411 1411 1410 1409 1408 1408 1407 1406 1406 1405 1405 1404 1404 1403 1402 1402
1423 1423 1422 1422 1421 1420 1420 1419 1418 1418 1417 1416 1415 1414 1413 1412 1411 1411 1410 1410 1409 1409 1408 1408 1407 1407 1406 1406 1405 1404 1404 1403 1402 1402 1401 1400 1400 1400 1399 1398 1398 1397 1397
1420 1420 1419 1418 1417 1417 1416 1415 1415 1414 1413 1412 1411 1410 1410 1408 1407 1406 1405 1405 1404 1404 1403 1402 1402 1401 1401 1400 1400 1399 1398 1397 1397 1396 1396 1395 1395 1394 1394 1394 1393 1393 1392
1417 1417 1416 1415 1414 1413 1412 1412 1411 1410 1409 1408 1407 1406 1405 1404 1402 1401 1401 1400 1399 1399 1398 1397 1396 1396 1395 1395 1394 1393 1393 1392 1391 1391 1390 1390 1390 1389 1389 1389 1388 1388 1387
1414 1413 1413 1412 1411 1410 1409 1408 1407 1406 1405 1404 1403 1401 1400 1399 1398 1397 1396 1395 1394 1394 1393 1392 1391 1390 1390 1389 1389 1388 1387 1386 1386 1386 1385 1385 1384 1384 1384 1384 1384 1383 1383
1411 1410 1409 1408 1407 1406 1405 1404 1403 1402 1401 1400 1399 1397 1396 1395 1393 1392 1391 1390 1390 1389 1388 1387 1386 1385 1384 1384 1383 1382 1382 1381 1381 1381 1380 1380 1379 1379 1379 1379 1379 1379 1378
1407 1406 1406 1405 1404 1403 1402 1401 1399 1398 1397 1396 1394 1393 1391 1390 1389 1388 1386 1385 1384 1383 1383 1382 1381 1380 1379 1378 1377 1377 1376 1376 1376 1375 1375 1375 1375 1375 1374 1374 1374 1374 1374
1404 1403 1402 1401 1400 1399 1398 1397 1395 1394 1393 1392 1390 1389 1387 1386 1384 1383 1382 1380 1379 1378 1378 1377 1376 1375 1374 1373 1372 1372 1371 1371 1371 1371 1371 1370 1370 1370 1370 1370 1370 1370 1370